Location: Gälforsberget
(66.6500°N, 22.4167°E)
Time: 17:21:29
(UTC+00:00)

Cosmos 1725 Rocket - Pass Details

Date: 11 April 2026
Orbit: 960 x 991 km, 82.9° (Epoch: 16 May)

Event Time Altitude Azimuth Distance (km) Brightness Sun altitude
Exits shadow 23:48:06 18° 213° (SSW) 2,254 5.3 -13.5°
Maximum altitude 23:53:01 68° 294° (WNW) 1,068 4.2 -13.3°
Drops below altitude 10° 23:59:21 10° 18° (NNE) 2,762 7.9 -13.1°
Sets 00:01:54 0° 21° (NNE) 3,710 9.1 -13.0°
